Location: Crescent
(42.8242°N, 73.7329°W)
Time: 08:45:16
(UTC+00:00)

Vanguard 1 - Pass Details

Date: 16 February 2026
Orbit: 653 x 3818 km, 34.2° (Epoch: 12 March)

Event Time Altitude Azimuth Distance (km) Brightness Sun altitude
Rises 19:03:25 0° 209° (SSW) 4,342 14.6 29.1°
Reaches altitude 10° 19:06:15 10° 198° (SSW) 3,712 14.5 28.8°
Maximum altitude 19:14:56 32° 139° (SE) 3,276 13.1 28.0°
Drops below altitude 10° 19:28:53 10° 86° (E) 6,040 13.8 26.4°
Sets 19:35:10 0° 79° (ENE) 7,479 14.1 25.7°
